Location: Losili
(4.4086°N, 32.7049°E)
Time: 04:35:40
(UTC+00:00)

Cosmos 1939 Rocket - Pass Details

Date: 18 September 2019
Orbit: 535 x 583 km, 97.4° (Epoch: 22 October)

Event Time Altitude Azimuth Distance (km) Brightness Sun altitude
Exits shadow 16:59:44 47° 97° (E) 720 2.9 -18.9°
Maximum altitude 17:00:04 49° 79° (ENE) 704 2.9 -19.0°
Drops below altitude 10° 17:03:48 10° 3° (N) 1,790 5.4 -19.9°
Sets 17:05:56 0° 358° (N) 2,674 6.4 -20.4°
